"startDT [UTC]","vpos","CH4 [ppm]","stdev(CH4) [ppm]","CO2 [ppm]","stdev(CO2) [ppm]","H2O_reported [%]","stdev(H2O_reported)","CavityPressure [torr]","CavityTemp [C]","OutletValve","CH4_dry [ppm]","CO2_dry [ppm]","DasTemp [C]","EtalonTemp [C]","WarmBoxTemp [C]","MPVPosition","T_ECpre [C]","T_EC1 [C]","T_EC2 [C]","p_inlet [hPa]","p_in [hPa]","p_out [hPa]","T_inlet [C]","RH_inlet [%]","dwpt_inlet [C]","T_vent [C]","RH_vent [%]","dwpt_vent [C]","flow_vent [l min-1]","flow_inlet [l min-1]","dwpt_sample [C]","T_room [C]"
2015-11-09 00:00:00,3.0,1.88218,0.01979,398.488,1.716,0.0467,0.0688,140.002,45.000,31365.84682,1.88503,398.827,29.471,45.071,45.000,0.00,0.09,-272.73,-272.79,1,519,-935,14.6,9.8,-17.0,14.7,9.9,-16.7,5.73,2.04,-15.8,21.3
2015-11-09 00:01:00,3.0,1.87621,0.00030,396.922,0.036,0.0109,0.0024,139.998,45.000,31366.68130,1.87640,396.975,29.488,45.071,45.000,0.00,0.09,-272.73,-272.78,1,518,-935,14.6,9.8,-16.9,14.7,9.9,-16.7,5.73,2.00,-15.8,21.3
2015-11-09 00:02:00,3.0,1.87614,0.00032,397.211,0.126,0.0115,0.0016,139.999,45.000,31367.96957,1.87635,397.257,29.458,45.071,45.000,0.00,0.09,-272.72,-272.78,0,518,-935,14.6,9.9,-16.8,14.7,10.0,-16.6,5.73,2.00,-15.8,21.3
2015-11-09 00:03:00,3.0,1.87596,0.00034,397.463,0.032,0.0104,0.0022,139.996,45.000,31368.30029,1.87618,397.512,29.439,45.071,45.000,0.00,0.09,-272.73,-272.78,1,518,-935,14.6,9.8,-16.9,14.7,9.9,-16.7,5.73,2.01,-15.7,21.3
2015-11-09 00:04:00,3.0,1.87595,0.00027,397.518,0.039,0.0100,0.0014,140.001,45.000,31370.96773,1.87612,397.564,29.437,45.071,45.000,0.00,0.09,-272.74,-272.80,1,519,-935,14.6,9.8,-16.9,14.8,9.8,-16.7,5.73,2.00,-15.8,21.3
2015-11-09 00:05:00,3.0,1.87601,0.00038,397.521,0.041,0.0077,0.0021,139.999,45.000,31372.69594,1.87615,397.558,29.411,45.071,45.000,0.00,0.09,-272.73,-272.79,1,519,-935,14.6,9.8,-16.8,14.8,9.9,-16.6,5.73,2.01,-15.7,21.3
2015-11-09 00:06:00,3.0,1.87626,0.00041,397.539,0.036,0.0059,0.0017,140.000,45.000,31372.87866,1.87637,397.567,29.377,45.071,45.000,0.00,0.09,-272.73,-272.78,1,519,-935,14.7,10.0,-16.7,14.8,10.0,-16.5,5.73,2.00,-15.8,21.4
2015-11-09 00:07:00,3.0,1.87653,0.00033,397.553,0.026,0.0048,0.0023,139.999,45.000,31372.83581,1.87661,397.575,29.375,45.072,45.001,0.00,0.09,-272.73,-272.79,1,519,-935,14.7,10.0,-16.6,14.8,10.1,-16.4,5.73,2.01,-15.7,21.4
2015-11-09 00:08:00,3.0,1.87640,0.00049,397.555,0.020,0.0037,0.0021,139.996,45.000,31371.09060,1.87648,397.573,29.381,45.072,45.001,0.00,0.09,-272.74,-272.79,1,519,-935,14.7,9.9,-16.7,14.8,10.1,-16.4,5.73,2.01,-15.7,21.4
2015-11-09 00:09:00,3.0,1.87626,0.00025,397.564,0.026,0.0035,0.0022,139.999,45.000,31374.13120,1.87631,397.580,29.386,45.071,45.000,0.00,0.09,-272.73,-272.78,1,519,-935,14.7,9.8,-16.8,14.9,9.9,-16.5,5.73,2.01,-15.7,21.4
2015-11-09 00:10:00,3.0,1.87625,0.00034,397.569,0.030,0.0030,0.0017,140.002,45.000,31374.00482,1.87630,397.584,29.408,45.071,45.000,0.00,0.09,-272.73,-272.79,1,519,-935,14.7,9.8,-16.8,14.9,9.9,-16.6,5.73,2.01,-15.7,21.4
2015-11-09 00:11:00,3.0,1.87622,0.00035,397.586,0.024,0.0024,0.0020,139.999,45.000,31375.06976,1.87627,397.597,29.399,45.071,45.000,0.00,0.09,-272.74,-272.79,1,519,-935,14.8,9.6,-17.0,14.9,9.8,-16.7,5.73,2.01,-15.7,21.4
2015-11-09 00:12:00,3.0,1.87628,0.00030,397.558,0.022,0.0022,0.0020,139.997,45.000,31377.01218,1.87631,397.568,29.377,45.071,45.000,0.00,0.09,-272.73,-272.78,1,519,-935,14.8,9.5,-17.1,14.9,9.7,-16.8,5.73,2.01,-15.7,21.4
2015-11-09 00:13:00,3.0,1.87611,0.00042,397.576,0.026,0.0024,0.0017,139.998,45.000,31378.46697,1.87617,397.587,29.376,45.071,45.000,0.00,0.09,-272.73,-272.79,1,519,-935,14.9,9.5,-17.1,15.0,9.6,-16.9,5.73,2.01,-15.7,21.4
2015-11-09 00:14:00,3.0,1.87640,0.00035,397.578,0.030,0.0021,0.0025,139.999,45.000,31379.98602,1.87645,397.588,29.378,45.071,45.000,0.00,0.09,-272.73,-272.79,1,520,-935,14.9,9.4,-17.1,15.0,9.6,-16.9,5.73,2.01,-15.7,21.5
2015-11-09 00:15:00,3.0,1.87620,0.00037,397.574,0.027,0.0009,0.0009,139.998,45.000,31380.14607,1.87618,397.578,29.412,45.071,45.000,0.00,0.09,-272.73,-272.79,1,520,-935,14.9,9.5,-17.1,15.0,9.6,-16.8,5.73,2.01,-15.7,21.5
2015-11-09 00:16:00,3.0,1.87625,0.00027,397.573,0.028,0.0016,0.0013,140.001,45.000,31381.91499,1.87629,397.580,29.437,45.071,45.000,0.00,0.09,-272.72,-272.78,1,520,-935,15.0,9.4,-17.0,15.1,9.6,-16.8,5.73,2.01,-15.7,21.5
2015-11-09 00:17:00,3.0,1.87629,0.00042,397.596,0.034,0.0013,0.0020,140.000,45.000,31381.86634,1.87629,397.601,29.438,45.071,45.000,0.00,0.09,-272.73,-272.79,1,520,-935,15.1,9.4,-17.1,15.1,9.5,-16.9,5.73,2.01,-15.7,21.5
2015-11-09 00:18:00,3.0,1.87655,0.00033,397.595,0.027,0.0014,0.0018,139.998,45.000,31384.30172,1.87659,397.601,29.438,45.071,45.000,0.00,0.09,-272.73,-272.79,1,520,-935,15.1,9.3,-17.1,15.1,9.5,-16.9,5.73,2.01,-15.7,21.5
2015-11-09 00:19:00,3.0,1.87632,0.00022,397.572,0.029,0.0016,0.0021,139.998,45.000,31386.10683,1.87635,397.580,29.441,45.071,45.000,0.00,0.09,-272.72,-272.78,1,520,-935,15.1,9.4,-17.1,15.2,9.5,-16.9,5.73,2.01,-15.7,21.5
2015-11-09 00:20:00,0.0,1.92621,0.02011,401.851,1.666,0.1665,0.0709,139.996,45.000,31308.16946,1.92739,402.555,29.438,45.071,45.000,0.00,0.09,-272.73,-272.79,-1,508,-935,15.2,9.3,-17.1,15.2,9.5,-16.9,5.73,1.94,-15.7,21.6
2015-11-09 00:21:00,0.0,1.93424,0.00045,402.523,0.027,0.2078,0.0015,140.001,45.000,31313.98982,1.93820,403.534,29.438,45.071,45.000,0.00,0.09,-272.74,-272.79,-1,509,-935,15.2,9.3,-17.1,15.2,9.4,-16.9,5.73,2.03,-15.7,21.6
2015-11-09 00:22:00,0.0,1.93502,0.00039,402.505,0.025,0.2111,0.0018,140.001,45.000,31315.09000,1.93905,403.532,29.438,45.071,45.000,0.00,0.09,-272.74,-272.78,-1,510,-935,15.2,9.3,-17.1,15.2,9.5,-16.9,5.73,2.05,-15.7,21.6
2015-11-09 00:23:00,0.0,1.93496,0.00034,402.491,0.044,0.2120,0.0016,139.994,45.000,31314.53374,1.93902,403.523,29.438,45.071,45.000,0.00,0.09,-272.74,-272.78,-1,510,-935,15.2,9.3,-17.0,15.3,9.5,-16.8,5.73,2.06,-15.7,21.6
2015-11-09 00:24:00,0.0,1.93522,0.00045,402.505,0.030,0.2104,0.0016,140.003,45.000,31318.53411,1.93924,403.527,29.438,45.071,45.000,0.00,0.09,-272.74,-272.79,-1,510,-935,15.2,9.3,-17.1,15.3,9.4,-16.8,5.73,2.06,-15.7,21.6
2015-11-09 00:25:00,0.0,1.93538,0.00050,402.500,0.029,0.2113,0.0015,139.999,45.000,31318.93597,1.93942,403.529,29.435,45.071,45.000,0.00,0.09,-272.74,-272.79,-0,510,-935,15.3,9.3,-17.1,15.3,9.4,-16.8,5.73,2.06,-15.7,21.6
2015-11-09 00:26:00,0.0,1.93553,0.00065,402.525,0.043,0.2113,0.0018,139.996,45.000,31316.80376,1.93960,403.553,29.430,45.071,45.000,0.00,0.09,-272.73,-272.78,-0,511,-935,15.3,9.3,-17.1,15.3,9.4,-16.8,5.73,2.05,-15.6,21.6
2015-11-09 00:27:00,0.0,1.93555,0.00046,402.530,0.042,0.2109,0.0020,140.000,45.000,31318.61067,1.93955,403.556,29.433,45.071,45.000,0.00,0.09,-272.73,-272.79,-1,511,-935,15.3,9.3,-17.1,15.3,9.4,-16.8,5.73,2.04,-15.6,21.6
2015-11-09 00:28:00,0.0,1.93497,0.00048,402.495,0.036,0.2118,0.0018,139.998,45.000,31321.28405,1.93904,403.526,29.438,45.071,45.000,0.00,0.09,-272.73,-272.79,-1,511,-935,15.3,9.3,-17.0,15.3,9.4,-16.8,5.73,2.03,-15.7,21.6
2015-11-09 00:29:00,0.0,1.93505,0.00057,402.493,0.027,0.2117,0.0019,140.001,45.000,31325.02256,1.93911,403.523,29.438,45.071,45.000,0.00,0.09,-272.72,-272.78,-1,511,-935,15.3,9.3,-17.0,15.3,9.4,-16.8,5.73,2.01,-15.6,21.7
2015-11-09 00:30:00,0.0,1.93528,0.00052,402.488,0.033,0.2103,0.0020,140.000,45.000,31324.41460,1.93932,403.512,29.438,45.071,45.000,0.00,0.09,-272.73,-272.79,-1,511,-935,15.3,9.3,-17.0,15.3,9.4,-16.9,5.73,2.01,-15.6,21.7
2015-11-09 00:31:00,0.0,1.93488,0.00039,402.486,0.024,0.2104,0.0017,140.001,45.000,31329.00835,1.93891,403.509,29.439,45.071,45.000,0.00,0.09,-272.73,-272.79,-1,511,-935,15.3,9.2,-17.1,15.3,9.4,-16.9,5.73,2.00,-15.6,21.7
2015-11-09 00:32:00,0.0,1.93464,0.00041,402.469,0.030,0.2092,0.0016,139.999,45.000,31329.61772,1.93862,403.488,29.438,45.071,45.000,0.00,0.09,-272.72,-272.79,-1,512,-935,15.3,9.2,-17.1,15.4,9.3,-16.9,5.73,2.00,-15.6,21.7
2015-11-09 00:33:00,0.0,1.93450,0.00048,402.486,0.040,0.2091,0.0019,140.000,45.000,31330.92288,1.93852,403.502,29.459,45.071,45.000,0.00,0.09,-272.73,-272.78,-0,512,-935,15.3,9.2,-17.2,15.4,9.3,-17.0,5.73,2.00,-15.6,21.7
2015-11-09 00:34:00,0.0,1.93481,0.00043,402.495,0.033,0.2101,0.0019,139.998,45.000,31331.46067,1.93881,403.517,29.491,45.071,45.000,0.00,0.09,-272.73,-272.79,-0,512,-936,15.3,9.2,-17.1,15.4,9.3,-16.9,5.73,2.01,-15.6,21.7
2015-11-09 00:35:00,0.0,1.93507,0.00041,402.497,0.033,0.2123,0.0021,140.001,45.000,31334.11880,1.93914,403.528,29.500,45.071,45.000,0.00,0.09,-272.73,-272.79,-1,512,-936,15.3,9.3,-17.0,15.4,9.4,-16.8,5.73,2.02,-15.6,21.7
2015-11-09 00:36:00,0.0,1.93561,0.00054,402.535,0.028,0.2129,0.0018,140.000,45.000,31333.53256,1.93963,403.571,29.500,45.071,45.000,0.00,0.09,-272.73,-272.78,-1,512,-936,15.3,9.3,-17.0,15.4,9.4,-16.8,5.73,2.03,-15.6,21.7
2015-11-09 00:37:00,0.0,1.93529,0.00066,402.509,0.039,0.2128,0.0019,139.999,45.000,31332.77979,1.93942,403.545,29.500,45.071,45.000,0.00,0.09,-272.73,-272.78,-1,512,-936,15.3,9.3,-17.0,15.4,9.4,-16.8,5.73,2.04,-15.6,21.7
2015-11-09 00:38:00,0.0,1.93427,0.00041,402.512,0.026,0.2100,0.0021,140.002,45.000,31335.31374,1.93830,403.533,29.492,45.071,45.000,0.00,0.09,-272.74,-272.78,-1,512,-936,15.2,9.2,-17.2,15.4,9.4,-16.9,5.73,2.06,-15.6,21.7
2015-11-09 00:39:00,0.0,1.93497,0.00044,402.543,0.026,0.2112,0.0021,139.999,45.000,31333.81883,1.93900,403.571,29.496,45.071,45.000,0.00,0.09,-272.73,-272.78,-1,512,-936,15.2,9.2,-17.2,15.3,9.3,-16.9,5.73,2.06,-15.6,21.7
2015-11-09 00:40:00,0.0,1.93468,0.00074,402.500,0.027,0.2126,0.0017,139.998,45.000,31334.21515,1.93877,403.535,29.500,45.071,45.000,0.00,0.09,-272.73,-272.78,-1,512,-936,15.2,9.3,-17.1,15.3,9.4,-16.8,5.73,2.07,-15.6,21.7
2015-11-09 00:41:00,0.0,1.93477,0.00050,402.523,0.030,0.2111,0.0027,139.997,45.000,31332.98653,1.93877,403.549,29.502,45.071,45.000,0.00,0.09,-272.74,-272.79,-0,512,-936,15.2,9.3,-17.1,15.3,9.4,-16.9,5.73,2.06,-15.6,21.7
2015-11-09 00:42:00,0.0,1.93487,0.00042,402.543,0.031,0.2147,0.0014,139.999,45.000,31332.49607,1.93901,403.588,29.512,45.071,45.000,0.00,0.09,-272.73,-272.79,-1,512,-936,15.2,9.4,-17.0,15.3,9.5,-16.8,5.73,2.05,-15.6,21.7
2015-11-09 00:43:00,0.0,1.93469,0.00045,402.516,0.043,0.2147,0.0021,139.999,45.000,31335.23921,1.93881,403.561,29.513,45.071,45.000,0.00,0.09,-272.72,-272.78,-0,512,-936,15.1,9.5,-16.9,15.3,9.5,-16.7,5.73,2.03,-15.6,21.7
2015-11-09 00:44:00,0.0,1.93483,0.00046,402.509,0.033,0.2156,0.0014,140.001,45.000,31336.88500,1.93897,403.559,29.502,45.071,45.000,0.00,0.09,-272.73,-272.79,-1,512,-935,15.1,9.5,-16.9,15.3,9.5,-16.7,5.73,2.03,-15.6,21.7
2015-11-09 00:45:00,0.0,1.93408,0.00046,402.521,0.034,0.2159,0.0017,139.998,45.000,31333.47957,1.93819,403.570,29.507,45.071,45.000,0.00,0.09,-272.73,-272.79,-1,512,-936,15.1,9.5,-16.9,15.3,9.6,-16.7,5.73,2.01,-15.6,21.7
2015-11-09 00:46:00,0.0,1.93434,0.00049,402.531,0.031,0.2158,0.0016,139.998,45.000,31331.26342,1.93850,403.581,29.510,45.071,45.000,0.00,0.09,-272.72,-272.78,-1,512,-935,15.1,9.5,-16.9,15.3,9.5,-16.7,5.73,2.00,-15.6,21.7
2015-11-09 00:47:00,0.0,1.93427,0.00047,402.536,0.029,0.2149,0.0020,139.999,45.000,31331.63322,1.93837,403.583,29.551,45.071,45.000,0.00,0.09,-272.73,-272.79,-1,512,-935,15.1,9.4,-16.9,15.3,9.5,-16.7,5.73,2.00,-15.6,21.7
2015-11-09 00:48:00,0.0,1.93423,0.00036,402.543,0.030,0.2145,0.0025,139.999,45.000,31333.58646,1.93834,403.587,29.536,45.071,45.000,0.00,0.09,-272.74,-272.80,-1,512,-935,15.1,9.4,-17.0,15.3,9.5,-16.8,5.73,2.00,-15.6,21.7
2015-11-09 00:49:00,0.0,1.93473,0.00041,402.537,0.037,0.2149,0.0015,139.998,45.000,31332.42715,1.93885,403.582,29.558,45.071,45.000,0.00,0.09,-272.73,-272.78,-1,512,-935,15.1,9.5,-16.9,15.3,9.5,-16.7,5.73,2.01,-15.6,21.7
2015-11-09 00:50:00,0.0,1.93516,0.00039,402.546,0.035,0.2128,0.0016,140.001,45.000,31332.90695,1.93921,403.581,29.560,45.071,45.000,0.00,0.09,-272.73,-272.78,-1,512,-935,15.1,9.4,-17.0,15.3,9.4,-16.8,5.73,2.01,-15.6,21.7
2015-11-09 00:51:00,0.0,1.93551,0.00055,402.563,0.039,0.2140,0.0019,140.000,45.000,31334.75854,1.93958,403.605,29.562,45.071,45.000,0.00,0.09,-272.73,-272.79,-1,512,-935,15.1,9.4,-17.0,15.3,9.4,-16.8,5.73,2.01,-15.6,21.8
2015-11-09 00:52:00,0.0,1.93524,0.00050,402.542,0.036,0.2132,0.0017,140.002,45.000,31335.30999,1.93933,403.580,29.563,45.071,45.000,0.00,0.09,-272.73,-272.79,-1,512,-935,15.1,9.4,-17.0,15.3,9.4,-16.8,5.73,2.03,-15.6,21.7
2015-11-09 00:53:00,0.0,1.93544,0.00045,402.564,0.033,0.2146,0.0020,140.000,45.000,31335.64124,1.93955,403.608,29.561,45.071,45.000,0.00,0.09,-272.73,-272.78,-1,512,-935,15.1,9.5,-16.9,15.3,9.5,-16.8,5.73,2.03,-15.6,21.7
2015-11-09 00:54:00,0.0,1.93527,0.00048,402.536,0.037,0.2126,0.0016,139.999,45.000,31336.62036,1.93936,403.570,29.562,45.071,45.000,0.00,0.09,-272.73,-272.79,-1,512,-935,15.1,9.4,-17.0,15.3,9.5,-16.8,5.73,2.04,-15.6,21.7
2015-11-09 00:55:00,0.0,1.93559,0.00046,402.586,0.028,0.2130,0.0022,140.001,45.000,31335.63347,1.93967,403.623,29.554,45.071,45.000,0.00,0.09,-272.73,-272.78,-2,512,-935,15.1,9.4,-17.0,15.3,9.4,-16.8,5.73,2.05,-15.6,21.8
2015-11-09 00:56:00,0.0,1.93513,0.00038,402.575,0.031,0.2129,0.0021,140.000,45.000,31336.61916,1.93920,403.611,29.517,45.071,45.000,0.00,0.09,-272.73,-272.78,-1,512,-935,15.1,9.4,-17.0,15.3,9.4,-16.8,5.73,2.05,-15.6,21.7
2015-11-09 00:57:00,0.0,1.93457,0.00039,402.564,0.032,0.2113,0.0026,140.001,45.000,31336.73995,1.93864,403.591,29.527,45.071,45.000,0.00,0.09,-272.73,-272.79,-2,512,-935,15.1,9.4,-17.1,15.3,9.4,-16.8,5.73,2.05,-15.6,21.7
2015-11-09 00:58:00,0.0,1.93472,0.00035,402.610,0.028,0.2112,0.0027,139.999,45.000,31334.17653,1.93874,403.636,29.523,45.071,45.000,0.00,0.09,-272.74,-272.79,-1,512,-935,15.1,9.3,-17.1,15.3,9.4,-16.9,5.73,2.05,-15.6,21.8
2015-11-09 00:59:00,0.0,1.93481,0.00041,402.603,0.039,0.2160,0.0025,140.000,45.000,31334.46682,1.93894,403.656,29.508,45.071,45.000,0.00,0.09,-272.73,-272.78,-1,512,-935,15.1,9.5,-17.0,15.3,9.5,-16.8,5.73,2.05,-15.5,21.7
2015-11-09 01:00:00,0.0,1.93501,0.00032,402.594,0.032,0.2143,0.0020,139.999,45.000,31332.73259,1.93910,403.637,29.518,45.071,45.000,0.00,0.09,-272.73,-272.78,-1,512,-935,15.1,9.5,-17.0,15.3,9.5,-16.8,5.73,2.04,-15.6,21.8
2015-11-09 01:01:00,0.0,1.93512,0.00046,402.604,0.030,0.2128,0.0024,139.999,45.000,31333.50475,1.93921,403.639,29.503,45.071,45.000,0.00,0.09,-272.73,-272.80,-1,512,-935,15.1,9.4,-17.0,15.3,9.4,-16.8,5.73,2.04,-15.5,21.8
2015-11-09 01:02:00,0.0,1.93503,0.00035,402.596,0.033,0.2153,0.0024,139.999,45.000,31333.75231,1.93914,403.643,29.501,45.071,45.000,0.00,0.09,-272.73,-272.79,-1,512,-935,15.1,9.5,-16.9,15.3,9.5,-16.8,5.73,2.02,-15.5,21.7
2015-11-09 01:03:00,0.0,1.93512,0.00034,402.602,0.026,0.2151,0.0017,140.000,45.000,31333.29818,1.93924,403.650,29.513,45.071,45.000,0.00,0.09,-272.73,-272.79,-2,512,-935,15.0,9.5,-16.9,15.3,9.5,-16.8,5.73,2.01,-15.5,21.7
2015-11-09 01:04:00,0.0,1.93488,0.00044,402.617,0.020,0.2106,0.0016,139.998,45.000,31333.35329,1.93892,403.641,29.517,45.071,45.000,0.00,0.09,-272.73,-272.78,-2,512,-935,15.1,9.4,-17.1,15.3,9.4,-16.8,5.73,2.01,-15.5,21.7
2015-11-09 01:05:00,0.0,1.93495,0.00028,402.614,0.036,0.2121,0.0026,140.000,45.000,31334.05319,1.93901,403.646,29.508,45.071,45.000,0.00,0.09,-272.73,-272.79,-2,512,-935,15.0,9.4,-17.1,15.2,9.4,-16.9,5.73,2.00,-15.5,21.7
2015-11-09 01:06:00,0.0,1.93470,0.00036,402.607,0.031,0.2122,0.0017,139.997,45.000,31333.20867,1.93874,403.639,29.500,45.071,45.000,0.00,0.09,-272.73,-272.78,-1,512,-935,15.0,9.4,-17.0,15.3,9.4,-16.8,5.73,2.00,-15.5,21.7
2015-11-09 01:07:00,0.0,1.93437,0.00052,402.613,0.040,0.2138,0.0021,140.000,45.000,31333.18775,1.93848,403.655,29.502,45.071,45.000,0.00,0.09,-272.73,-272.79,-1,512,-935,15.0,9.5,-17.0,15.2,9.5,-16.8,5.73,2.00,-15.5,21.7
2015-11-09 01:08:00,0.0,1.93477,0.00028,402.604,0.039,0.2123,0.0015,140.001,45.000,31333.56331,1.93884,403.636,29.507,45.071,45.000,0.00,0.09,-272.74,-272.79,-1,512,-935,15.0,9.4,-17.1,15.2,9.5,-16.9,5.73,2.00,-15.5,21.7
2015-11-09 01:09:00,0.0,1.93474,0.00046,402.640,0.033,0.2104,0.0025,140.000,45.000,31332.25884,1.93876,403.664,29.500,45.071,45.000,0.00,0.09,-272.73,-272.78,-1,512,-935,15.0,9.3,-17.2,15.2,9.4,-17.0,5.73,2.02,-15.5,21.7
2015-11-09 01:10:00,0.0,1.93492,0.00041,402.605,0.036,0.2101,0.0020,140.002,45.000,31333.41707,1.93897,403.629,29.500,45.071,45.000,0.00,0.09,-272.72,-272.78,-1,512,-935,15.0,9.3,-17.2,15.2,9.3,-17.0,5.73,2.03,-15.5,21.7
2015-11-09 01:11:00,0.0,1.93468,0.00044,402.586,0.034,0.2102,0.0016,139.999,45.000,31334.75021,1.93869,403.607,29.499,45.071,45.000,0.00,0.09,-272.73,-272.79,-1,512,-935,15.0,9.4,-17.2,15.2,9.4,-17.0,5.73,2.05,-15.5,21.7
2015-11-09 01:12:00,0.0,1.93462,0.00047,402.609,0.040,0.2113,0.0025,140.000,45.000,31334.27602,1.93867,403.638,29.500,45.071,45.000,0.00,0.09,-272.73,-272.79,-1,512,-935,14.9,9.4,-17.2,15.2,9.4,-17.0,5.73,2.05,-15.5,21.7
2015-11-09 01:13:00,0.0,1.93461,0.00047,402.682,0.040,0.2085,0.0022,139.999,45.000,31334.07914,1.93858,403.697,29.499,45.071,45.000,0.00,0.09,-272.73,-272.78,-1,512,-935,14.9,9.3,-17.3,15.2,9.3,-17.1,5.73,2.06,-15.5,21.7
2015-11-09 01:14:00,0.0,1.93484,0.00029,402.660,0.037,0.2074,0.0026,140.000,45.000,31334.68584,1.93881,403.669,29.499,45.071,45.000,0.00,0.09,-272.73,-272.79,-1,512,-935,14.9,9.2,-17.4,15.2,9.3,-17.1,5.73,2.06,-15.5,21.7
2015-11-09 01:15:00,0.0,1.93478,0.00041,402.666,0.035,0.2085,0.0018,139.999,45.000,31333.76027,1.93878,403.682,29.497,45.071,45.000,0.00,0.09,-272.74,-272.79,-1,512,-936,14.9,9.3,-17.3,15.2,9.3,-17.1,5.73,2.05,-15.5,21.7
2015-11-09 01:16:00,0.0,1.93459,0.00035,402.661,0.037,0.2077,0.0024,140.001,45.000,31335.59691,1.93856,403.672,29.499,45.071,45.000,0.00,0.09,-272.73,-272.79,-1,512,-936,14.9,9.3,-17.3,15.2,9.3,-17.1,5.73,2.05,-15.5,21.6
2015-11-09 01:17:00,0.0,1.93489,0.00029,402.644,0.046,0.2071,0.0023,139.998,45.000,31335.43589,1.93884,403.652,29.494,45.071,45.000,0.00,0.09,-272.73,-272.79,-1,512,-936,14.9,9.2,-17.4,15.2,9.2,-17.2,5.73,2.03,-15.5,21.6
2015-11-09 01:18:00,0.0,1.93533,0.00061,402.613,0.031,0.2066,0.0012,140.001,45.000,31335.69184,1.93926,403.619,29.469,45.071,45.000,0.00,0.09,-272.74,-272.79,-1,512,-936,14.9,9.2,-17.4,15.2,9.2,-17.2,5.73,2.01,-15.5,21.7
2015-11-09 01:19:00,0.0,1.93531,0.00052,402.642,0.067,0.2083,0.0018,140.001,45.000,31336.09503,1.93932,403.654,29.469,45.071,45.000,0.00,0.09,-272.73,-272.79,-1,512,-936,14.9,9.3,-17.3,15.1,9.3,-17.2,5.73,2.00,-15.5,21.7
2015-11-09 01:20:00,0.0,1.93462,0.00044,402.720,0.038,0.2046,0.0017,139.999,45.000,31336.92048,1.93856,403.716,29.480,45.071,45.000,0.00,0.09,-272.73,-272.78,-1,512,-936,14.9,9.2,-17.4,15.2,9.2,-17.2,5.73,1.99,-15.5,21.7
2015-11-09 01:21:00,0.0,1.93483,0.00039,402.704,0.030,0.2069,0.0026,140.002,45.000,31338.61565,1.93879,403.709,29.491,45.071,45.000,0.00,0.09,-272.73,-272.79,-1,512,-936,14.9,9.2,-17.4,15.2,9.2,-17.2,5.73,2.00,-15.5,21.7
2015-11-09 01:22:00,0.0,1.93494,0.00029,402.630,0.034,0.2090,0.0020,140.002,45.000,31337.95046,1.93890,403.648,29.452,45.071,45.000,0.00,0.09,-272.73,-272.79,-0,512,-936,14.9,9.3,-17.3,15.1,9.3,-17.1,5.73,2.00,-15.5,21.7
2015-11-09 01:23:00,0.0,1.93470,0.00051,402.632,0.039,0.2094,0.0021,139.999,45.000,31336.62645,1.93877,403.652,29.443,45.071,45.000,0.00,0.09,-272.72,-272.79,-1,512,-935,14.9,9.4,-17.2,15.1,9.4,-17.1,5.73,2.02,-15.5,21.7
2015-11-09 01:24:00,0.0,1.93472,0.00039,402.659,0.030,0.2085,0.0020,139.999,45.000,31334.83336,1.93870,403.672,29.441,45.071,45.000,0.00,0.09,-272.73,-272.79,-1,512,-935,14.9,9.3,-17.3,15.1,9.3,-17.1,5.73,2.04,-15.5,21.7
2015-11-09 01:25:00,0.0,1.93446,0.00037,402.677,0.055,0.2106,0.0023,139.998,45.000,31333.16514,1.93848,403.703,29.441,45.071,45.000,0.00,0.09,-272.73,-272.79,-1,512,-935,14.9,9.4,-17.2,15.2,9.3,-17.1,5.73,2.05,-15.5,21.7
2015-11-09 01:26:00,0.0,1.93470,0.00053,402.732,0.046,0.2090,0.0019,139.998,45.000,31330.35895,1.93869,403.746,29.449,45.071,45.000,0.00,0.09,-272.73,-272.79,-1,512,-935,14.9,9.3,-17.3,15.2,9.3,-17.1,5.73,2.06,-15.5,21.7
2015-11-09 01:27:00,0.0,1.93516,0.00037,402.766,0.035,0.2092,0.0021,140.000,45.000,31331.40529,1.93916,403.786,29.471,45.071,45.000,0.00,0.09,-272.72,-272.78,-1,512,-935,14.9,9.3,-17.3,15.2,9.3,-17.1,5.73,2.06,-15.5,21.7
2015-11-09 01:28:00,0.0,1.93465,0.00029,402.739,0.026,0.2087,0.0023,139.999,45.000,31332.51845,1.93865,403.755,29.484,45.071,45.000,0.00,0.09,-272.73,-272.79,-1,512,-935,14.9,9.3,-17.3,15.1,9.3,-17.1,5.73,2.06,-15.5,21.7
2015-11-09 01:29:00,0.0,1.93486,0.00038,402.714,0.038,0.2102,0.0018,140.000,45.000,31333.35076,1.93891,403.738,29.488,45.071,45.000,0.00,0.09,-272.74,-272.79,-1,512,-935,14.9,9.4,-17.2,15.1,9.4,-17.0,5.73,2.06,-15.5,21.7
2015-11-09 01:30:00,0.0,1.93449,0.00033,402.714,0.040,0.2092,0.0015,139.997,45.000,31331.17788,1.93849,403.732,29.493,45.071,45.000,0.00,0.09,-272.73,-272.78,-1,511,-935,14.9,9.3,-17.3,15.1,9.4,-17.0,5.73,2.04,-15.5,21.6
2015-11-09 01:31:00,0.0,1.93452,0.00032,402.707,0.044,0.2075,0.0020,139.997,45.000,31330.65099,1.93849,403.719,29.500,45.071,45.000,0.00,0.09,-272.74,-272.78,-1,511,-935,14.9,9.2,-17.4,15.1,9.3,-17.1,5.73,2.02,-15.5,21.6
2015-11-09 01:32:00,0.0,1.93474,0.00041,402.709,0.027,0.2063,0.0015,139.999,45.000,31328.97970,1.93866,403.713,29.500,45.071,45.000,0.00,0.09,-272.74,-272.78,-1,511,-935,14.9,9.2,-17.4,15.1,9.3,-17.2,5.73,2.01,-15.5,21.6
2015-11-09 01:33:00,0.0,1.93488,0.00027,402.709,0.060,0.2059,0.0031,139.998,45.000,31326.69574,1.93882,403.710,29.498,45.071,45.000,0.00,0.09,-272.73,-272.78,-1,511,-935,14.9,9.2,-17.5,15.1,9.3,-17.2,5.73,2.00,-15.5,21.6
2015-11-09 01:34:00,0.0,1.93494,0.00034,402.750,0.036,0.2051,0.0016,139.999,45.000,31327.28354,1.93888,403.746,29.498,45.071,45.000,0.00,0.09,-272.73,-272.78,-1,511,-935,14.9,9.2,-17.5,15.1,9.2,-17.3,5.73,1.99,-15.5,21.6
2015-11-09 01:35:00,0.0,1.93485,0.00035,402.800,0.027,0.2077,0.0022,139.999,45.000,31329.02279,1.93882,403.813,29.484,45.071,45.000,0.00,0.09,-272.74,-272.79,-1,511,-935,14.9,9.2,-17.4,15.1,9.2,-17.2,5.73,2.00,-15.5,21.6
2015-11-09 01:36:00,0.0,1.93496,0.00043,402.780,0.027,0.2102,0.0016,140.001,45.000,31327.94769,1.93898,403.802,29.472,45.071,45.000,0.00,0.09,-272.73,-272.79,-1,511,-935,14.9,9.4,-17.3,15.1,9.4,-17.1,5.73,2.00,-15.5,21.6
2015-11-09 01:37:00,0.0,1.93479,0.00036,402.807,0.023,0.2068,0.0022,139.997,45.000,31326.13352,1.93875,403.814,29.456,45.071,45.000,0.00,0.09,-272.73,-272.79,-1,511,-935,14.9,9.3,-17.3,15.1,9.3,-17.1,5.73,2.02,-15.5,21.6
2015-11-09 01:38:00,0.0,1.93495,0.00051,402.829,0.028,0.2056,0.0031,139.999,45.000,31326.20715,1.93891,403.828,29.451,45.071,45.000,0.00,0.09,-272.73,-272.80,-1,511,-935,14.9,9.2,-17.4,15.1,9.3,-17.2,5.73,2.03,-15.5,21.6
2015-11-09 01:39:00,0.0,1.93501,0.00038,402.799,0.034,0.2079,0.0020,139.999,45.000,31326.57063,1.93894,403.813,29.444,45.071,45.000,0.00,0.09,-272.73,-272.79,-1,511,-935,14.9,9.3,-17.3,15.1,9.3,-17.2,5.73,2.05,-15.5,21.6
2015-11-09 01:40:00,0.0,1.93488,0.00027,402.822,0.029,0.2097,0.0023,139.999,45.000,31328.48764,1.93892,403.841,29.446,45.071,45.000,0.00,0.09,-272.72,-272.79,-1,511,-935,14.9,9.4,-17.3,15.1,9.4,-17.1,5.73,2.06,-15.5,21.6
2015-11-09 01:41:00,0.0,1.93456,0.00030,402.828,0.025,0.2101,0.0025,140.000,45.000,31328.95104,1.93860,403.852,29.439,45.071,45.000,0.00,0.09,-272.73,-272.79,-1,511,-935,14.8,9.4,-17.2,15.1,9.4,-17.0,5.73,2.07,-15.5,21.6
2015-11-09 01:42:00,0.0,1.93444,0.00034,402.846,0.030,0.2081,0.0018,140.000,45.000,31328.98857,1.93841,403.858,29.446,45.071,45.000,0.00,0.09,-272.73,-272.79,-1,511,-935,14.9,9.3,-17.3,15.1,9.4,-17.1,5.73,2.06,-15.5,21.6
2015-11-09 01:43:00,0.0,1.93434,0.00033,402.853,0.034,0.2105,0.0022,139.998,45.000,31327.08578,1.93838,403.879,29.441,45.071,45.000,0.00,0.09,-272.73,-272.78,-2,511,-935,14.9,9.4,-17.2,15.1,9.4,-17.0,5.73,2.05,-15.5,21.6
2015-11-09 01:44:00,0.0,1.93423,0.00054,402.858,0.039,0.2070,0.0016,139.999,45.000,31329.79396,1.93816,403.864,29.438,45.071,45.000,0.00,0.09,-272.73,-272.78,-1,511,-935,14.8,9.3,-17.3,15.1,9.4,-17.1,5.73,2.04,-15.5,21.6
2015-11-09 01:45:00,0.0,1.93419,0.00034,402.915,0.034,0.2085,0.0018,139.996,45.000,31329.34259,1.93821,403.931,29.442,45.071,45.000,0.00,0.09,-272.74,-272.78,-1,511,-935,14.8,9.3,-17.3,15.1,9.3,-17.1,5.73,2.03,-15.5,21.6